GW0115 Weather Reports


Display with metric or nautical units.
time (UTC)temp
F
wind
direction
speed
MPH
gust
MPH
rain 1hr
in
rain 24hr
in
rain mn
in
humidity
%
barometer
mb
20260505101551 55 0 0.0 0.0 0.00 0.00 0.00 70 1005.2
20260505100052 55 0 0.0 0.0 0.00 0.00 0.00 70 1004.9
20260505094551 55 0 0.0 0.0 0.00 0.00 0.00 68 1005.0
20260505093057 56 0 0.0 3.0 0.00 0.00 0.00 68 1004.9
20260505091552 56 0 0.0 0.0 0.00 0.00 0.00 68 1004.9
20260505090054 56 0 0.0 3.0 0.00 0.00 0.00 67 1005.0
20260505084552 56 0 0.0 3.0 0.00 0.00 0.00 67 1005.1
20260505083051 56 0 0.0 3.0 0.00 0.00 0.00 66 1005.3
20260505081608 57 0 0.0 4.0 0.00 0.00 0.00 64 1005.4
20260505080055 57 0 0.0 2.0 0.00 0.00 0.00 64 1005.3
20260505074551 60 0 0.0 7.0 0.00 0.00 0.00 57 1005.2
20260505073051 62 267 1.0 15.0 0.00 0.00 0.00 53 1005.1
20260505071555 62 0 2.0 9.0 0.00 0.00 0.00 52 1005.1
20260505070055 62 235 3.0 12.0 0.00 0.00 0.00 51 1005.0
20260505064550 62 0 5.0 14.0 0.00 0.00 0.00 50 1005.2
20260505063053 62 0 1.0 13.0 0.00 0.00 0.00 51 1005.2
20260505061556 62 0 5.0 16.0 0.00 0.00 0.00 49 1005.2
20260505060051 63 187 6.0 18.0 0.00 0.00 0.00 49 1005.0
20260505054555 63 226 4.0 14.0 0.00 0.00 0.00 49 1005.2
20260505053101 62 215 4.0 12.0 0.00 0.00 0.00 50 1005.2
20260505051552 59 0 1.0 13.0 0.00 0.00 0.00 56 1005.3
20260505041556 54 0 0.0 0.0 0.00 0.00 0.00 66 1005.4
20260505040055 54 0 0.0 0.0 0.00 0.00 0.00 67 1005.2
20260505034552 53 0 0.0 0.0 0.00 0.00 0.00 67 1005.1
20260505033054 53 0 0.0 0.0 0.00 0.00 0.00 68 1005.3
20260505031552 54 0 0.0 0.0 0.00 0.00 0.00 67 1005.3
20260505024553 54 0 0.0 0.0 0.00 0.00 0.00 66 1005.4
20260505023058 54 0 0.0 0.0 0.00 0.00 0.00 68 1005.5
20260505021554 54 0 0.0 0.0 0.00 0.00 0.00 69 1005.6
20260505020056 56 0 0.0 0.0 0.00 0.00 0.00 65 1005.5
20260505014549 57 0 0.0 0.0 0.00 0.00 0.00 63 1005.3
20260505013055 57 0 0.0 0.0 0.00 0.00 0.00 61 1005.2
20260505011555 58 0 0.0 0.0 0.00 0.00 0.00 60 1005.1
20260505010103 59 0 0.0 0.0 0.00 0.00 0.00 58 1005.3
20260505004555 59 0 0.0 0.0 0.00 0.00 0.00 58 1005.0
20260505003104 59 0 0.0 0.0 0.00 0.00 0.00 57 1005.0
20260505001557 60 0 0.0 0.0 0.00 0.00 0.00 58 1004.8
20260504234555 61 0 0.0 0.0 0.00 0.00 0.00 57 1004.6
20260504233055 62 0 0.0 0.0 0.00 0.00 0.00 55 1004.3
20260504231600 63 0 0.0 0.0 0.00 0.00 0.00 52 1004.1
20260504230058 67 0 0.0 9.0 0.00 0.00 0.00 45 1003.9
20260504224559 66 0 0.0 1.0 0.00 0.00 0.00 44 1003.7
20260504223051 67 0 0.0 6.0 0.00 0.00 0.00 42 1003.7
20260504221551 67 0 0.0 8.0 0.00 0.00 0.00 40 1003.7
20260504220115 67 0 0.0 7.0 0.00 0.00 0.00 40 1003.7
20260504214554 68 0 0.0 7.0 0.00 0.00 0.00 40 1003.7
20260504213056 67 0 0.0 10.0 0.00 0.00 0.00 45 1003.7
20260504211555 68 0 0.0 5.0 0.00 0.00 0.00 41 1003.7
20260504210051 68 255 3.0 11.0 0.00 0.00 0.00 42 1003.7
20260504204551 67 0 0.0 8.0 0.00 0.00 0.00 42 1003.8
20260504203050 66 0 1.0 10.0 0.00 0.00 0.00 43 1003.8
20260504201554 67 0 1.0 10.0 0.00 0.00 0.00 42 1004.0
20260504200054 66 0 2.0 9.0 0.00 0.00 0.00 43 1004.1
20260504194549 67 0 0.0 10.0 0.00 0.00 0.00 43 1004.3
20260504193055 67 0 2.0 10.0 0.00 0.00 0.00 43 1004.3
20260504191557 66 0 1.0 10.0 0.00 0.00 0.00 44 1004.5
20260504190107 65 0 0.0 11.0 0.00 0.00 0.00 45 1004.8
20260504184611 65 0 0.0 13.0 0.00 0.00 0.00 47 1004.9
20260504183053 63 0 0.0 8.0 0.00 0.00 0.00 48 1004.9
20260504181553 64 0 0.0 7.0 0.00 0.00 0.00 47 1005.0
20260504180054 64 0 0.0 7.0 0.00 0.00 0.00 45 1005.2
20260504174552 64 0 0.0 6.0 0.00 0.00 0.00 46 1005.2
20260504173056 62 0 0.0 5.0 0.00 0.00 0.00 48 1005.3
20260504171552 62 0 0.0 3.0 0.00 0.00 0.00 50 1005.4